| time (UTC) | temp C | wind direction | speed KPH | gust KPH | rain 1hr cm | rain 24hr cm | rain mn cm | humidity % | barometer mb |
| 20260507030052 | 18 | 331 | 11.3 | 25.7 | 0.00 | 0.00 | 0.00 | 81 | 1012.8 |
| 20260507024545 | 18 | 355 | 9.7 | 20.9 | 0.00 | 0.00 | 0.00 | 81 | 1012.8 |
| 20260507023040 | 18 | 355 | 11.3 | 25.7 | 0.00 | 0.00 | 0.00 | 81 | 1012.4 |
| 20260507021537 | 18 | 33 | 8.0 | 17.7 | 0.00 | 0.00 | 0.00 | 80 | 1012.1 |
| 20260507020032 | 19 | 22 | 9.7 | 25.7 | 0.00 | 0.00 | 0.00 | 80 | 1011.8 |
| 20260507014542 | 19 | 28 | 12.9 | 27.4 | 0.00 | 0.00 | 0.00 | 79 | 1011.7 |
| 20260507013026 | 19 | 26 | 9.7 | 27.4 | 0.00 | 0.00 | 0.00 | 78 | 1011.5 |
| 20260507011528 | 20 | 5 | 8.0 | 24.1 | 0.00 | 0.00 | 0.00 | 78 | 1011.5 |
| 20260507010019 | 20 | 5 | 9.7 | 29.0 | 0.00 | 0.00 | 0.00 | 77 | 1011.0 |
| 20260507004519 | 20 | 17 | 11.3 | 32.2 | 0.00 | 0.00 | 0.00 | 76 | 1010.8 |
| 20260507003013 | 21 | 349 | 16.1 | 30.6 | 0.00 | 0.00 | 0.00 | 75 | 1010.6 |
| 20260507001510 | 22 | 21 | 12.9 | 30.6 | 0.00 | 0.00 | 0.00 | 74 | 1010.4 |
| 20260507000006 | 22 | 20 | 12.9 | 30.6 | 0.00 | 0.00 | 0.00 | 74 | 1010.0 |
| 20260506234502 | 23 | 27 | 14.5 | 25.7 | 0.00 | 0.00 | 0.00 | 73 | 1009.9 |
| 20260506233124 | 23 | 38 | 14.5 | 27.4 | 0.00 | 0.00 | 0.00 | 73 | 1009.7 |
| 20260506231559 | 25 | 12 | 12.9 | 33.8 | 0.00 | 0.00 | 0.00 | 73 | 1009.4 |
| 20260506230057 | 25 | 43 | 20.9 | 38.6 | 0.00 | 0.00 | 0.00 | 72 | 1009.2 |
| 20260506224557 | 26 | 36 | 17.7 | 35.4 | 0.00 | 0.00 | 0.00 | 73 | 1008.9 |
| 20260506223100 | 26 | 28 | 12.9 | 35.4 | 0.00 | 0.00 | 0.00 | 74 | 1008.6 |
| 20260506221558 | 27 | 61 | 12.9 | 27.4 | 0.00 | 0.00 | 0.00 | 74 | 1008.5 |
| 20260506220054 | 28 | 360 | 12.9 | 25.7 | 0.00 | 0.00 | 0.00 | 74 | 1008.5 |
| 20260506214553 | 28 | 53 | 11.3 | 22.5 | 0.00 | 0.00 | 0.00 | 75 | 1008.5 |
| 20260506213110 | 28 | 34 | 11.3 | 22.5 | 0.00 | 0.00 | 0.00 | 75 | 1008.3 |
| 20260506211551 | 28 | 57 | 11.3 | 20.9 | 0.00 | 0.00 | 0.00 | 76 | 1008.4 |
| 20260506210055 | 28 | 32 | 8.0 | 19.3 | 0.00 | 0.00 | 0.00 | 76 | 1008.6 |
| 20260506204552 | 28 | 39 | 12.9 | 20.9 | 0.00 | 0.00 | 0.00 | 74 | 1008.7 |
| 20260506203050 | 29 | 17 | 4.8 | 16.1 | 0.00 | 0.00 | 0.00 | 73 | 1008.6 |
| 20260506201549 | 30 | 93 | 4.8 | 11.3 | 0.00 | 0.00 | 0.00 | 73 | 1008.6 |
| 20260506200047 | 29 | 146 | 1.6 | 6.4 | 0.00 | 0.00 | 0.00 | 74 | 1008.6 |
| 20260506194548 | 30 | 146 | 0.0 | 8.0 | 0.00 | 0.00 | 0.00 | 73 | 1008.7 |
| 20260506193048 | 30 | 115 | 3.2 | 6.4 | 0.00 | 0.00 | 0.00 | 71 | 1008.8 |
| 20260506191546 | 30 | 71 | 1.6 | 9.7 | 0.00 | 0.00 | 0.00 | 71 | 1008.9 |
| 20260506190044 | 30 | 49 | 1.6 | 11.3 | 0.00 | 0.00 | 0.00 | 74 | 1009.1 |
| 20260506184543 | 30 | 57 | 0.0 | 12.9 | 0.00 | 0.00 | 0.00 | 73 | 1009.1 |
| 20260506183041 | 29 | 111 | 1.6 | 12.9 | 0.00 | 0.00 | 0.00 | 75 | 1009.5 |
| 20260506181539 | 29 | 87 | 6.4 | 12.9 | 0.00 | 0.00 | 0.00 | 76 | 1009.6 |
| 20260506180045 | 29 | 134 | 4.8 | 12.9 | 0.00 | 0.00 | 0.00 | 77 | 1009.8 |
| 20260506174531 | 28 | 112 | 3.2 | 14.5 | 0.00 | 0.00 | 0.00 | 80 | 1009.9 |
| 20260506173028 | 27 | 71 | 4.8 | 14.5 | 0.00 | 0.00 | 0.00 | 84 | 1010.2 |
| 20260506171527 | 27 | 78 | 8.0 | 16.1 | 0.00 | 0.00 | 0.00 | 85 | 1010.3 |
| 20260506170023 | 27 | 76 | 4.8 | 12.9 | 0.00 | 0.00 | 0.00 | 86 | 1010.3 |
| 20260506164521 | 26 | 28 | 4.8 | 12.9 | 0.00 | 0.00 | 0.00 | 87 | 1010.3 |
| 20260506163034 | 26 | 5 | 4.8 | 11.3 | 0.00 | 0.00 | 0.00 | 87 | 1010.4 |
| 20260506161517 | 26 | 29 | 3.2 | 8.0 | 0.00 | 0.00 | 0.00 | 88 | 1010.4 |
| 20260506160019 | 25 | 88 | 1.6 | 6.4 | 0.00 | 0.00 | 0.00 | 88 | 1010.2 |
| 20260506154512 | 25 | 88 | 1.6 | 6.4 | 0.00 | 0.00 | 0.00 | 89 | 1009.9 |
| 20260506153010 | 25 | 88 | 1.6 | 6.4 | 0.00 | 0.00 | 0.00 | 89 | 1009.6 |
| 20260506151507 | 25 | 134 | 1.6 | 8.0 | 0.00 | 0.00 | 0.00 | 90 | 1009.4 |
| 20260506150005 | 25 | 136 | 4.8 | 11.3 | 0.00 | 0.00 | 0.00 | 91 | 1009.3 |
| 20260506144503 | 25 | 148 | 4.8 | 14.5 | 0.00 | 0.00 | 0.00 | 92 | 1009.1 |
| 20260506143002 | 24 | 142 | 3.2 | 11.3 | 0.00 | 0.00 | 0.00 | 93 | 1008.9 |
| 20260506141600 | 24 | 136 | 6.4 | 14.5 | 0.00 | 0.00 | 0.00 | 93 | 1008.9 |
| 20260506140100 | 24 | 136 | 4.8 | 12.9 | 0.00 | 0.00 | 0.00 | 94 | 1008.5 |
| 20260506134557 | 23 | 149 | 11.3 | 16.1 | 0.00 | 0.00 | 0.00 | 94 | 1008.2 |
| 20260506133056 | 23 | 138 | 4.8 | 14.5 | 0.00 | 0.00 | 0.00 | 94 | 1008.3 |
| 20260506131555 | 23 | 130 | 8.0 | 16.1 | 0.00 | 0.00 | 0.00 | 94 | 1008.2 |
| 20260506130053 | 23 | 144 | 6.4 | 14.5 | 0.00 | 0.00 | 0.00 | 95 | 1008.1 |
| 20260506124553 | 23 | 129 | 0.0 | 6.4 | 0.00 | 0.00 | 0.00 | 95 | 1008.2 |
| 20260506123052 | 23 | 128 | 3.2 | 8.0 | 0.00 | 0.00 | 0.00 | 94 | 1008.0 |
| 20260506121551 | 23 | 130 | 1.6 | 8.0 | 0.00 | 0.00 | 0.00 | 94 | 1007.9 |
| 20260506120057 | 23 | 135 | 4.8 | 8.0 | 0.00 | 0.00 | 0.00 | 94 | 1007.8 |
| 20260506114557 | 23 | 142 | 6.4 | 11.3 | 0.00 | 0.00 | 0.00 | 93 | 1007.8 |
| 20260506113048 | 23 | 144 | 3.2 | 6.4 | 0.00 | 0.00 | 0.00 | 93 | 1007.9 |
| 20260506111548 | 23 | 144 | 3.2 | 8.0 | 0.00 | 0.00 | 0.00 | 92 | 1007.8 |
| 20260506110054 | 23 | 147 | 4.8 | 12.9 | 0.00 | 0.00 | 0.00 | 92 | 1007.7 |
| 20260506104544 | 23 | 140 | 4.8 | 12.9 | 0.00 | 0.00 | 0.00 | 92 | 1007.6 |
| 20260506103042 | 23 | 167 | 4.8 | 12.9 | 0.00 | 0.00 | 0.00 | 91 | 1007.4 |
| 20260506101543 | 23 | 153 | 4.8 | 14.5 | 0.00 | 0.00 | 0.00 | 91 | 1007.5 |
| 20260506100041 | 24 | 150 | 6.4 | 16.1 | 0.00 | 0.00 | 0.00 | 91 | 1007.5 |
| 20260506094549 | 24 | 148 | 8.0 | 14.5 | 0.00 | 0.00 | 0.00 | 91 | 1007.3 |
| 20260506093037 | 24 | 176 | 6.4 | 16.1 | 0.00 | 0.00 | 0.00 | 91 | 1007.3 |
| 20260506091536 | 24 | 162 | 9.7 | 19.3 | 0.00 | 0.00 | 0.00 | 91 | 1007.3 |
| 20260506090034 | 24 | 167 | 8.0 | 16.1 | 0.00 | 0.00 | 0.00 | 90 | 1007.6 |
| 20260506084534 | 24 | 155 | 8.0 | 14.5 | 0.00 | 0.00 | 0.00 | 90 | 1007.7 |
| 20260506083033 | 24 | 173 | 9.7 | 17.7 | 0.00 | 0.00 | 0.00 | 89 | 1007.5 |
| 20260506081532 | 24 | 188 | 6.4 | 17.7 | 0.00 | 0.00 | 0.00 | 89 | 1007.5 |
| 20260506073028 | 25 | 150 | 9.7 | 16.1 | 0.00 | 0.00 | 0.00 | 88 | 1007.9 |
| 20260506071531 | 25 | 162 | 6.4 | 17.7 | 0.00 | 0.00 | 0.00 | 87 | 1007.9 |
| 20260506061531 | 25 | 146 | 16.1 | 22.5 | 0.00 | 0.00 | 0.00 | 88 | 1008.1 |
| 20260506044513 | 25 | 140 | 17.7 | 25.7 | 0.00 | 0.00 | 0.00 | 88 | 1008.1 |
| 20260506043013 | 25 | 123 | 11.3 | 20.9 | 0.00 | 0.00 | 0.00 | 88 | 1008.0 |
| 20260506041517 | 25 | 145 | 14.5 | 24.1 | 0.00 | 0.00 | 0.00 | 88 | 1007.9 |
| 20260506040033 | 25 | 152 | 19.3 | 25.7 | 0.00 | 0.00 | 0.00 | 87 | 1007.5 |
| 20260506034511 | 25 | 148 | 12.9 | 25.7 | 0.00 | 0.00 | 0.00 | 87 | 1007.5 |
| 20260506033011 | 25 | 128 | 16.1 | 22.5 | 0.00 | 0.00 | 0.00 | 87 | 1007.5 |
| 20260506031524 | 25 | 120 | 12.9 | 22.5 | 0.00 | 0.00 | 0.00 | 86 | 1007.4 |